{"data":{"norad_id":58820,"epoch":"2026-09-22T22:43:46.758144Z","epoch_age_seconds":38593,"freshness":"FRESH","line1":"1 58820U 24016A   26265.94706896  .00035222  00000+0  41554-3 0  9991","line2":"2 58820  97.4471   5.7081 0005289  57.9289 302.2481 15.61262202149294","mean_motion":15.61262202,"eccentricity":0.0005289,"inclination_deg":97.4471,"raan_deg":5.7081,"arg_perigee_deg":57.9289,"mean_anomaly_deg":302.2481,"bstar":0.00041554,"rev_number":14929,"period_min":92.233066179104,"perigee_km":380.43355342101,"apogee_km":387.58655257367,"semimajor_km":6762.1470529973,"source":"CELESTRAK","updated_at":"2026-09-23T09:00:19.005651Z"}}